Americus, GA

7:12 PM EDT on September 24, 2017 (GMT -0400)
Souther

Weather History for KACJ - April, 2014

Change the Weather History Date:

Saturday, April 12, 2014

  Actual Average (KABY) Record (KABY)
Temperature  
Mean Temperature 65 °F -  
Max Temperature 80 °F 75 °F 88 °F (1948)
Min Temperature 50 °F 52 °F 33 °F (1989)
Growing Degree Days 15 (Base 50)    
Moisture  
Dew Point 54 °F    
Average Humidity 73    
Maximum Humidity 100    
Minimum Humidity 37    
Precipitation  
Precipitation 0.00 in - - ()
Sea Level Pressure  
Sea Level Pressure 30.19 in    
Wind  
Wind Speed 2 mph (SSE)    
Max Wind Speed 9 mph    
Max Gust Speed -    
Visibility 10 miles    
Events      
Averages and records for this station are not official NWS values.
T = Trace of Precipitation, MM = Missing Value Source: NWS Daily Summary

Daily Weather History Graph

Daily Weather History Graph

Search for Another Location

Airport or City:

Trip Planner

Search our weather history database for the weather conditions in past years. The results will help you decide how hot, cold, wet, or windy it might be!

Date:

Astronomy

Apr. 12, 2014 Rise Set
Actual Time 7:11 AM EDT 8:04 PM EDT
Civil Twilight 6:46 AM EDT 8:29 PM EDT
Nautical Twilight 6:16 AM EDT 8:58 PM EDT
Astronomical Twilight 5:46 AM EDT 9:29 PM EDT
Moon 5:49 PM EDT (4/12) 5:28 AM EDT (4/12)
Length of Visible Light 13h 42m
Length of Day
12h 52m
Waxing Gibbous, 93% of the Moon is Illuminated
Apr 12
Waxing Gibbous
Apr 15
Full
Apr 22
Last Quarter
Apr 29
New
May 6
First Quarter

Hourly Weather History & Observations

Time (EDT) Temp. Dew Point Humidity Pressure Visibility Wind Dir Wind Speed Gust Speed Precip Events Conditions
12:10 AM 55.4 °F 55.4 °F 100% 30.21 in 10.0 mi Calm Calm - N/A   Clear
12:30 AM 55.4 °F 53.6 °F 94% 30.21 in 10.0 mi Calm Calm - N/A   Clear
12:50 AM 55.4 °F 53.6 °F 94% 30.21 in 10.0 mi Calm Calm - N/A   Clear
1:10 AM 53.6 °F 53.6 °F 100% 30.21 in 10.0 mi Calm Calm - N/A   Clear
1:30 AM 53.6 °F 53.6 °F 100% 30.21 in 10.0 mi Calm Calm - N/A   Clear
1:50 AM 53.6 °F 53.6 °F 100% 30.21 in 10.0 mi Calm Calm - N/A   Clear
2:10 AM 53.6 °F 53.6 °F 100% 30.21 in 10.0 mi Calm Calm - N/A   Clear
2:30 AM 53.6 °F 53.6 °F 100% 30.20 in 7.0 mi Calm Calm - N/A   Clear
2:50 AM 53.6 °F 53.6 °F 100% 30.20 in 7.0 mi Calm Calm - N/A   Clear
3:10 AM 53.6 °F 53.6 °F 100% 30.19 in 7.0 mi Calm Calm - N/A   Clear
3:30 AM 53.6 °F 53.6 °F 100% 30.19 in 7.0 mi Calm Calm - N/A   Clear
3:50 AM 51.8 °F 51.8 °F 100% 30.19 in 5.0 mi Calm Calm - N/A   Clear
4:10 AM 51.8 °F 51.8 °F 100% 30.18 in 7.0 mi Calm Calm - N/A   Clear
4:30 AM 51.8 °F 51.8 °F 100% 30.19 in 7.0 mi West 3.5 mph - N/A   Clear
4:50 AM 51.8 °F 51.8 °F 100% 30.20 in 10.0 mi Calm Calm - N/A   Clear
5:10 AM 50.0 °F 50.0 °F 100% 30.20 in 10.0 mi Calm Calm - N/A   Clear
5:30 AM 51.8 °F 51.8 °F 100% 30.20 in 10.0 mi Calm Calm - N/A   Scattered Clouds
5:50 AM 51.8 °F 51.8 °F 100% 30.19 in 7.0 mi Calm Calm - N/A   Scattered Clouds
6:10 AM 51.8 °F 51.8 °F 100% 30.20 in 7.0 mi Calm Calm - N/A   Clear
6:30 AM 51.8 °F 51.8 °F 100% 30.20 in 10.0 mi Calm Calm - N/A   Clear
6:50 AM 51.8 °F 50.0 °F 94% 30.21 in 10.0 mi Calm Calm - N/A   Clear
7:10 AM 51.8 °F 51.8 °F 100% 30.22 in 5.0 mi SSE 3.5 mph - N/A   Clear
7:30 AM 51.8 °F 51.8 °F 100% 30.23 in 10.0 mi Calm Calm - N/A   Clear
7:50 AM 53.6 °F 51.8 °F 94% 30.24 in 10.0 mi Calm Calm - N/A   Scattered Clouds
8:10 AM 55.4 °F 53.6 °F 94% 30.24 in 10.0 mi Calm Calm - N/A   Scattered Clouds
8:30 AM 59.0 °F 55.4 °F 88% 30.24 in 10.0 mi Calm Calm - N/A   Clear
8:50 AM 60.8 °F 57.2 °F 88% 30.24 in 10.0 mi Calm Calm - N/A   Clear
9:10 AM 64.4 °F 55.4 °F 73% 30.24 in 10.0 mi Calm Calm - N/A   Clear
9:30 AM 66.2 °F 55.4 °F 68% 30.24 in 10.0 mi Calm Calm - N/A   Clear
9:50 AM 68.0 °F 55.4 °F 64% 30.25 in 10.0 mi Calm Calm - N/A   Clear
10:10 AM 69.8 °F 55.4 °F 60% 30.25 in 10.0 mi Calm Calm - N/A   Clear
10:30 AM 71.6 °F 53.6 °F 53% 30.25 in 10.0 mi South 5.8 mph - N/A   Clear
10:50 AM 71.6 °F 55.4 °F 57% 30.25 in 10.0 mi ESE 5.8 mph - N/A   Clear
11:10 AM 71.6 °F 55.4 °F 57% 30.25 in 10.0 mi SE 8.1 mph - N/A   Clear
11:30 AM 73.4 °F 53.6 °F 50% 30.25 in 10.0 mi SE 6.9 mph - N/A   Clear
11:50 AM 73.4 °F 55.4 °F 53% 30.25 in 10.0 mi SE 4.6 mph - N/A   Scattered Clouds
12:30 PM 75.2 °F 55.4 °F 50% 30.24 in 10.0 mi SE 9.2 mph - N/A   Scattered Clouds
12:50 PM 77.0 °F 53.6 °F 44% 30.23 in 10.0 mi SW 5.8 mph - N/A   Scattered Clouds
1:10 PM 77.0 °F 53.6 °F 44% 30.23 in 10.0 mi South 9.2 mph - N/A   Scattered Clouds
1:50 PM 77.0 °F 53.6 °F 44% 30.21 in 10.0 mi SE 4.6 mph - N/A   Mostly Cloudy
2:10 PM 77.0 °F 51.8 °F 41% 30.20 in 10.0 mi SSW 6.9 mph - N/A   Mostly Cloudy
2:30 PM 77.0 °F 53.6 °F 44% 30.20 in 10.0 mi ESE 4.6 mph - N/A   Mostly Cloudy
2:50 PM 78.8 °F 51.8 °F 39% 30.19 in 10.0 mi Calm Calm - N/A   Scattered Clouds
3:10 PM 78.8 °F 53.6 °F 42% 30.18 in 10.0 mi SSE 6.9 mph - N/A   Scattered Clouds
3:50 PM 78.8 °F 51.8 °F 39% 30.16 in 10.0 mi SSE 6.9 mph - N/A   Clear
4:10 PM 80.6 °F 51.8 °F 37% 30.15 in 10.0 mi SSE 8.1 mph - N/A   Scattered Clouds
4:30 PM 80.6 °F 51.8 °F 37% 30.14 in 10.0 mi SSE 9.2 mph - N/A   Scattered Clouds
4:50 PM 78.8 °F 51.8 °F 39% 30.13 in 10.0 mi SE 9.2 mph - N/A   Mostly Cloudy
5:10 PM 78.8 °F 51.8 °F 39% 30.13 in 10.0 mi South 5.8 mph - N/A   Mostly Cloudy
5:30 PM 80.6 °F 51.8 °F 37% 30.13 in 10.0 mi SSW 8.1 mph - N/A   Scattered Clouds
5:50 PM 78.8 °F 51.8 °F 39% 30.13 in 10.0 mi South 5.8 mph - N/A   Clear
6:10 PM 78.8 °F 53.6 °F 42% 30.13 in 10.0 mi SSE 8.1 mph - N/A   Clear
6:30 PM 78.8 °F 53.6 °F 42% 30.12 in 10.0 mi South 5.8 mph - N/A   Scattered Clouds
6:50 PM 78.8 °F 53.6 °F 42% 30.12 in 10.0 mi South 3.5 mph - N/A   Scattered Clouds
7:10 PM 78.8 °F 55.4 °F 44% 30.12 in 10.0 mi SSE 4.6 mph - N/A   Mostly Cloudy
7:30 PM 77.0 °F 55.4 °F 47% 30.12 in 10.0 mi South 3.5 mph - N/A   Scattered Clouds
7:50 PM 73.4 °F 55.4 °F 53% 30.12 in 10.0 mi Calm Calm - N/A   Clear
8:10 PM 69.8 °F 60.8 °F 73% 30.12 in 10.0 mi Calm Calm - N/A   Clear
8:30 PM 68.0 °F 60.8 °F 78% 30.13 in 10.0 mi Calm Calm - N/A   Clear
8:50 PM 68.0 °F 59.0 °F 73% 30.13 in 10.0 mi Calm Calm - N/A   Clear
9:10 PM 66.2 °F 59.0 °F 78% 30.13 in 10.0 mi Calm Calm - N/A   Clear
9:30 PM 64.4 °F 59.0 °F 83% 30.14 in 10.0 mi Calm Calm - N/A   Clear
9:50 PM 64.4 °F 59.0 °F 83% 30.15 in 10.0 mi Calm Calm - N/A   Clear
10:10 PM 64.4 °F 59.0 °F 83% 30.15 in 10.0 mi Calm Calm - N/A   Clear
10:30 PM 62.6 °F 59.0 °F 88% 30.15 in 10.0 mi Calm Calm - N/A   Scattered Clouds
10:50 PM 62.6 °F 59.0 °F 88% 30.15 in 10.0 mi Calm Calm - N/A   Mostly Cloudy
11:10 PM 62.6 °F 60.8 °F 94% 30.15 in 10.0 mi Calm Calm - N/A   Mostly Cloudy
11:30 PM 62.6 °F 59.0 °F 88% 30.15 in 10.0 mi SE 3.5 mph - N/A   Mostly Cloudy
11:50 PM 62.6 °F 59.0 °F 88% 30.15 in 10.0 mi SSE 3.5 mph - N/A   Mostly Cloudy